AirNav   Bose Proflight and A20 aviation headeets
 
 869 users online  

PAEE Eek Airport
Eek, Alaska, USA

GOING TO EEK?


FAA INFORMATION EFFECTIVE 31 JANUARY 2019

Location

FAA Identifier: EEK
Lat/Long: 60-12-49.3000N / 162-02-38.0000W
60-12.821667N / 162-02.633333W
60.2136944 / -162.0438889
(estimated)
Elevation: 26.5 ft. / 8.1 m (surveyed)
Variation: 15E (2005)
From city: 1 mile W of EEK, AK
Time zone: UTC -9 (UTC -8 during Daylight Saving Time)
Zip code: 99578

Airport Operations

Airport use: Open to the public
Activation date: 06/1974
Control tower: no
ARTCC: ANCHORAGE CENTER
FSS: KENAI FLIGHT SERVICE STATION [907-283-8469]
NOTAMs facility: ENA (NOTAM-D service available)
Attendance: UNATNDD
Wind indicator: lighted
Segmented circle: yes
Lights: ACTVT MIRL RY 17/35; REIL & PAPI RYS 17 & 35- CTAF.
Beacon: white-green (lighted land airport)
Operates sunset to sunrise.

Airport Communications

CTAF: 122.8
  • APCH/DEP SVC PRVDD BY ANCHORAGE ARTCC (ZAN) ON 125.2/372.0 (BETHEL RCAG).

Nearby radio navigation aids

VOR radial/distance  VOR name  Freq  Var
BETr177/34.9BETHEL VORTAC114.1014E

 
NDB name  Hdg/Dist  Freq  Var  ID
OSCARVILLE177/35.025111EOSE --- ... .

Airport Services

Airframe service: NONE
Powerplant service: NONE
Bottled oxygen: NONE
Bulk oxygen: NONE

Runway Information

Runway 17/35

Dimensions: 3242 x 60 ft. / 988 x 18 m
Surface: gravel, in good condition
Runway edge lights: medium intensity
GRASS AND BRUSH SURROUNDS RY LGTS.
RUNWAY 17  RUNWAY 35
Latitude: 60-13.084597N60-12.559118N
Longitude: 162-02.549567W162-02.718668W
Elevation: 25.2 ft.23.1 ft.
Traffic pattern: leftleft
Runway heading: 174 magnetic, 189 true354 magnetic, 009 true
Visual slope indicator: 4-light PAPI on left (3.00 degrees glide path)4-light PAPI on left (3.00 degrees glide path)
Runway end identifier lights: yesyes
Touchdown point: yes, no lightsyes, no lights
Obstructions: 3 ft. brush, 8 ft. from runway, 58 ft. right of centerline5 ft. brush, 22 ft. from runway, 60 ft. left and right of centerline

Airport Ownership and Management from official FAA records

Ownership: Publicly-owned
Owner: ALASKA DOT&PF CENTRAL REGION
PO BOX 196900
ANCHORAGE, AK 99519-6900
Phone (907) 269-0783
Manager: LAWRENCE DAVIS
BOX 505
BETHEL, AK 99559
Phone (907) 543-2498

Airport Operational Statistics

Aircraft operations: avg 38/week *
100% air taxi
* for 12-month period ending 31 December 2016

Additional Remarks

RY CONDITION NOT MONITORED; RECOMMEND VISUAL INSPECTION PRIOR TO USING.
WX CAMERA AVBL ON INTERNET AT HTTP://AVCAMS.FAA.GOV
BIRDS INVOF ARPT.
300 FT TOWER APRXLY 1.1 MILIES EAST OF ARPT.
COLD TEMPERATURE RESTRICTED AIRPORT. ALTITUDE CORRECTION REQUIRED AT OR BELOW -38C.

Instrument Procedures

NOTE: All procedures below are presented as PDF files. If you need a reader for these files, you should download the free Adobe Reader.

NOT FOR NAVIGATION. Please procure official charts for flight.
FAA instrument procedures published for use from 31 January 2019 at 0901Z to 28 February 2019 at 0900Z.

 
IAPs - Instrument Approach Procedures
RNAV (GPS) RWY 17   download (163KB)
RNAV (GPS) RWY 35   download (163KB)

Other nearby airports with instrument procedures:

PAQH - Quinhagak Airport (28 nm S)
PANA - Napakiak Airport (29 nm N)
PAPK - Napaskiak Airport (30 nm N)
PABE - Bethel Airport (34 nm N)
PFKW - Kwethluk Airport (39 nm NE)
 
Loc | Ops | Rwys | IFR | FBO | Links
Com | Nav | Svcs | Stats | Notes

Crowley
 
Area around PAEE (Eek Airport)
 
Road maps at: MapQuest Bing Google
 
Aerial photo
WARNING: Photo may not be current or correct
Aerial photo of PAEE (Eek Airport)
Photo by Security Aviation
Photo taken 20-Dec-2017
looking south over Eek.

Do you have a better or more recent aerial photo of Eek Airport that you would like to share? If so, please send us your photo.

 
Sectional chart

 
Airport distance calculator
Flying to Eek Airport? Find the distance to fly.

From to PAEE

Sunrise and sunset
Times for 23-Feb-2019
 Local
(UTC-9)
 Zulu
(UTC)
Morning civil twilight08:2217:22
Sunrise09:0518:05
Sunset18:5803:58
Evening civil twilight19:4104:41

Current date and time
Zulu (UTC)  24-Feb-2019 03:05:00
Local (UTC-9)  23-Feb-2019 18:05:00
 
METAR
PAQH 
28nm S 
231456Z AUTO 11017G24KT 10SM CLR 02/M03 A3005 RMK AO2 PK WND 11032/1409 SLP175 T00171028 55001 FZRANO
PANA 
29nm N 
240256Z AUTO 09010G14KT 10SM CLR 02/M05 A2994 RMK AO2 SLP136 T00221050 56021 FZRANO
PABE 
35nm N 
240253Z 09011G17KT 10SM BKN150 03/M07 A2997 RMK AO2 PK WND 11030/0227 SLP149 T00331067 56017
PFKW 
39nm NE 
240156Z AUTO 10006KT 10SM FEW110 04/M06 A2998 RMK AO2 PK WND 13026/0142 SLP152 T00441061
PPIT 
43nm N 
240156Z AUTO 11016KT 10SM BKN110 02/M02 A2994 RMK AO2 SLP139 T00221022 FZRANO TSNO
TAF
PABE 
35nm N 
231731Z 2318/2418 11011KT P6SM SCT020 BKN060 WS020/13040KT FM232200 12015KT P6SM SCT070 WS020/13045KT FM240300 12015G25KT P6SM SCT070 WS020/14050KT FM240900 14028G38KT P6SM VCSH BKN040 FM241400 14028G38KT 5SM -RASN BR BKN020 OVC030
NOTAMs
Click for the latest NOTAMs
NOTAMs are issued by the DoD/FAA and will open in a separate window not controlled by AirNav.

 

 
 

Would you like to see your business listed on this page?

 If your business provides an interesting product or service to pilots, flight crews, aircraft, or users of the Eek Airport, you should consider listing it here.  To start the listing process, click on the button below
 
Add a business
 

Other Pages about Eek Airport

Update a link
 
Copyright © AirNav, LLC. All rights reserved. Privacy Policy  Contact